Regional Weather Roundup
Issued by NWS State College, PA

Current Version | Previous Version | Text Only | Print | Product List | Glossary On
Versions: 1 2 3 4 5 6 7 8 9 10 11 12 13 14 15 16 17 18 19 20 21 22 23 24 25 26 27 28 29 30 31 32 33 34 35 36 37 38 39 40 41 42 43 44 45 46 47 48 49 50
000
ASUS41 KCTP 281203
RWRCTP

REGIONAL WEATHER ROUNDUP
NATIONAL WEATHER SERVICE STATE COLLEGE PA
800 AM EDT TUE MAR 28 2017

Note: "fair" indicates few or no clouds below 12,000 feet with no
significant weather and/or obstructions to visibility.

* = STATION THAT DOES NOT REPORT PRECIPITATION /E.G. RAIN...SNOW...ETC/
    THUNDER OR FOG.

PAZ002>004-007>009-013>016-020>023-029>032-281300-
WESTERN PENNSYLVANIA

CITY           SKY/WX    TMP DP  RH WIND       PRES   REMARKS
ERIE           CLOUDY    46  45  96 CALM      29.92R FOG
MEADVILLE      LGT RAIN  48  46  93 N7        29.89R FOG
FRANKLIN*      CLOUDY    46  45  93 N5        29.89R VSB 1/2
NEW CASTLE     LGT RAIN  50  50 100 N3        29.88R
BEAVER COUNTY  DRIZZLE   52  50  93 CALM      29.87R
BUTLER*        MOCLDY    52  50  93 CALM      29.88R
PITTSBURGH INT LGT RAIN  54  54 100 S3        29.86S FOG
PITTSBURGH     LGT RAIN  55  53  93 S6        29.87R FOG
INDIANA*       CLOUDY    54  54 100 CALM      29.91R FOG
LATROBE        LGT RAIN  55  55 100 SW7       29.89R FOG
WASHINGTON CO* CLOUDY    54  52  94 CALM      29.89R
$$

PAZ004>006-010>012-017>019-024>028-033>037-041-042-045-046-049>053-281300-
CENTRAL PENNSYLVANIA

CITY           SKY/WX    TMP DP  RH WIND       PRES   REMARKS
BRADFORD       LGT RAIN  47  47 100 CALM      29.88R FOG
DUBOIS         CLOUDY    49  46  90 CALM      29.87R FOG
CLEARFIELD       N/A    N/A N/A N/A MISG      29.88R
JOHNSTOWN      LGT RAIN  52  52 100 W5        29.87S FOG
ALTOONA        LGT RAIN  52  51  97 CALM      29.88R FOG
STATE COLLEGE  DRIZZLE   48  48 100 CALM      29.88R
WILLIAMSPORT   CLOUDY    46  45  96 CALM      29.88R
SELINSGROVE    CLOUDY    49  48  97 CALM      29.88S FOG
FT INDIANTOWN  CLOUDY    51  51 100 CALM      29.86F FOG
CAPITAL CITY   LGT RAIN  52  49  89 SE3       29.88R FOG
HARRISBURG     CLOUDY    51  50  96 E7        29.87R FOG
YORK           FOG       51  51 100 CALM      29.86S VSB 3/4
$$

PAZ038>040-043-044-047-048-054-055-060>062-067>071-281300-
EASTERN PENNSYLVANIA

CITY           SKY/WX    TMP DP  RH WIND       PRES   REMARKS
SCRANTON       LGT RAIN  52  50  93 E6        29.88S FOG
MOUNT POCONO   FOG       47  47 100 E6        29.89F VSB<1/4
ALLENTOWN      CLOUDY    50  46  86 E8        29.91S FOG
QUAKERTOWN*    CLOUDY    46  46 100 E5        29.92R VSB 1/4
READING        LGT RAIN  50  50 100 NE6       29.88F VSB 1/2
LANCASTER      FOG       51  51 100 E8        29.88R VSB 1
COATESVILLE    LGT RAIN  50  50 100 CALM      29.92R VSB<1/4
POTTSTOWN      LGT RAIN  48  47  96 NE7       29.90F FOG
BLUE BELL      CLOUDY    46  46 100 NE7       29.90R VSB 1/4
DOYLESTOWN     FOG       45  45 100 NE7       29.91S VSB 1
WILLOW GROVE   NOT AVBL
NORTH PHILA    FOG       49  48  97 NE13      29.92S VSB 1/4
PHILADELPHIA   FOG       50  49  96 NE7       29.92R VSB 3/4
$$



USA.gov is the U.S. government's official web portal to all federal, state and local government web resources and services.